Date,TemperatureHighF,TemperatureAvgF,TemperatureLowF,DewpointHighF,DewpointAvgF,DewpointLowF,HumidityHigh,HumidityAvg,HumidityLow,PressureMaxIn,PressureMinIn,WindSpeedMaxMPH,WindSpeedAvgMPH,GustSpeedMaxMPH,PrecipitationSumIn
2013-4-1,66.0,50.9,39.7,34.4,14.6,-6.3,48,26,10,29.88,29.58,17,6,31,0.02
2013-4-2,47.5,40.2,34.9,-5.7,-9.3,-14.2,13,11,10,30.06,29.88,17,5,33,0.00
2013-4-3,48.6,38.6,34.7,-4.9,-11.9,-14.6,10,10,10,30.27,30.06,18,7,31,0.00
2013-4-4,52.2,42.3,34.9,20.0,-3.0,-13.9,37,15,10,30.37,30.09,16,6,23,0.00
2013-4-5,64.0,51.5,32.0,20.1,-1.2,-8.0,39,12,10,29.96,29.62,15,6,29,0.00
2013-4-6,55.8,44.3,36.9,19.4,-1.7,-12.1,39,15,10,30.30,29.96,17,6,24,0.00
2013-4-7,52.9,50.3,41.9,30.7,23.5,3.3,43,35,16,30.29,29.97,25,12,36,0.01
2013-4-8,70.3,56.3,52.7,34.0,29.8,20.4,43,37,22,30.04,29.96,11,5,15,0.01
2013-4-9,80.8,66.7,52.2,47.3,34.1,10.2,46,30,10,29.98,29.86,15,3,23,0.00
2013-4-10,74.5,63.6,57.2,37.0,31.8,13.3,44,31,16,29.92,29.77,12,4,14,0.21
2013-4-11,61.7,56.5,49.3,41.4,36.2,26.0,52,47,27,29.99,29.82,15,5,20,0.42
2013-4-12,44.8,43.1,41.9,27.8,1.3,-5.9,51,19,12,29.92,29.69,16,8,28,0.80
2013-4-13,58.8,50.7,42.1,31.4,18.0,-6.1,52,30,10,29.95,29.71,12,4,17,0.03
2013-4-14,60.4,54.4,48.4,30.7,9.1,-5.1,45,19,10,30.20,29.94,16,4,29,0.00
2013-4-15,57.2,50.6,45.7,26.8,5.8,-5.1,42,18,10,30.36,30.20,14,5,21,0.00
2013-4-16,61.3,57.1,48.0,37.1,31.9,24.4,44,38,29,30.35,30.09,24,9,34,0.01
2013-4-17,77.0,63.6,56.7,37.6,22.8,3.5,46,24,10,30.27,30.07,12,4,16,0.02
2013-4-18,60.6,55.9,52.3,42.2,23.5,0.5,64,30,11,30.33,30.07,14,6,23,0.28
2013-4-19,70.0,61.1,54.1,53.3,32.1,5.3,64,41,10,30.08,29.61,20,8,102,0.01
2013-4-20,65.8,56.5,52.3,36.2,12.8,0.3,47,20,11,30.19,29.63,14,5,30,0.09
2013-4-21,57.7,50.2,43.2,10.6,-1.9,-8.5,22,11,10,30.60,30.50,10,4,15,0.09
2013-4-22,54.3,49.8,45.1,24.3,13.6,-2.7,41,24,10,30.65,30.47,16,8,24,0.09
2013-4-23,53.8,46.8,42.1,29.9,23.3,-8.5,45,40,10,30.47,30.09,14,6,22,0.00
2013-4-24,65.7,54.0,45.9,35.5,20.7,-2.3,44,30,10,30.09,29.81,14,6,19,0.00
2013-4-25,70.7,58.3,48.9,36.6,11.5,-1.8,40,16,10,30.25,29.83,14,5,27,0.00
2013-4-26,70.9,60.5,52.9,18.5,7.2,-1.2,24,12,10,30.38,30.23,8,3,14,0.00
2013-4-27,73.9,63.1,51.4,16.1,7.8,-1.2,11,11,11,30.41,30.26,14,5,20,0.00
2013-4-28,67.1,59.1,52.5,27.6,10.8,0.7,31,16,10,30.30,30.18,16,6,22,0.00
2013-4-29,58.3,55.8,54.0,36.0,32.8,26.6,45,42,33,30.22,30.16,12,6,18,0.04
2013-4-30,68.0,58.5,52.7,35.4,20.8,4.6,45,26,13,30.32,30.18,13,4,23,1.55